Tracking 30101 objects as of 14-Dec-2024
HD Live streaming from Space Station
objects crossing your sky now

SL-12 DEB

Track SL-12 DEB now!
10-day predictions


NORAD ID: 27805
Int'l Code: 1992-047L
Perigee: 432.2 km
Apogee: 10,595.7 km
Inclination: 65.2 °
Period: 214.9 minutes
Semi major axis: 11884 km
RCS: 0.048 m2 (small)
Launch date: July 30, 1992
Source: Commonwealth of Independent States (former USSR) (CIS)
Launch site: TYURATAM MISSILE AND SPACE COMPLEX (TTMTR)

Note: This is SATELLITE DEBRIS
Your satellite tracking list
Your tracking list is empty




NASA's NSSDC Master Catalog

Two Line Element Set (TLE):
1 27805U 92047L   24347.77344945  .00013800  00000-0  76484-2 0  9990
2 27805  65.1856 195.4995 4275792 113.1590 296.9361  6.70050795487658
Source of the keplerian elements: AFSPC